Location: Unspecified
(41.1850°N, 73.2650°W)
Time: 21:25:57
(UTC+00:00)

Hubble Space Telescope - Pass Details

Date: 14 December 2025
Orbit: 479 x 482 km, 28.5° (Epoch: 12 January)

Event Time Altitude Azimuth Distance (km) Brightness Sun altitude
Rises 23:05:45 0° 240° (WSW) 2,528 5.7 -18.3°
Reaches altitude 10° 23:09:19 10° 205° (SSW) 1,647 3.8 -18.9°
Maximum altitude 23:10:33 11° 186° (S) 1,566 3.4 -19.1°
Drops below altitude 10° 23:11:47 10° 167° (SSE) 1,646 3.3 -19.4°
Enters shadow 23:12:39 - 155° (SSE) 1,788 3.3 -19.5°
